Flag for Pakistan Weather past 2 weeks in Karachi, Pakistan

Now
97 °F

Partly cloudy.


Feels Like: 98 °F
Forecast: 91 / 102 °F
Wind: 10 mph from Northeast

Location: Karachi Airport

Current Time: Sep 2, 2014 at 7:11:15 PM

Latest Report: Sep 2, 2014 at 6:55 PM


Visibility: 4 mi

Pressure: 29.50 "Hg

Humidity: 32%

Dew point: 63 °F

Location of KarachiLocation

Historic Weather in Karachi — Graph

°F

Karachi temperature yesterday

Maximum temperature yesterday: 102 °F (at 1:25 PM)
Minimum temperature yesterday: 81 °F (at 3:55 AM)
Average temperature yesterday: 89 °F

Past Weeks' High & Low Weather Summary

 TemperatureHumidityPressure
High102 °F (Sep 1, 1:25 PM)100% (Aug 20, 2:55 AM)29.83 "Hg (Aug 20, 2:55 AM)
Low45 °F (Aug 20, 2:55 AM)27% (Sep 2, 1:55 PM)29.42 "Hg (Sep 1, 3:55 PM)
Average86 °F61%29.66 "Hg
* Reported Aug 18 5:25 PM — Sep 2 5:55 PM, Karachi, Weather by CustomWeather, © 2014

Note: Actual official high and low records may vary slightly from our data, if they occured in-between our weather recording intervals... More about our weather records

Advertising

Karachi weather history for previous 24 hours

 ConditionsComfort  
Time TempWeatherWind HumidityBarometerVisibility
5:55 PM
Sep 2
99 °FPartly sunny.14 mph31%29.50 "Hg4 mi
5:25 PM99 °FPartly sunny.18 mph31%29.47 "Hg4 mi
4:55 PM99 °FPartly sunny.14 mph31%29.47 "Hg4 mi
4:25 PM99 °FPartly sunny.17 mph31%29.47 "Hg4 mi
3:55 PM97 °FPartly sunny.16 mph39%29.50 "Hg4 mi
3:25 PM97 °FBroken clouds.20 mph30%29.50 "Hg4 mi
2:55 PM97 °FBroken clouds.16 mph28%29.53 "Hg4 mi
2:25 PM97 °FBroken clouds.17 mph28%29.53 "Hg4 mi
1:55 PM97 °FBroken clouds.12 mph27%29.56 "Hg4 mi
1:25 PM95 °FBroken clouds.15 mph28%29.56 "Hg4 mi
12:55 PM95 °FBroken clouds.15 mph28%29.56 "Hg4 mi
12:25 PM97 °FPartly sunny.20 mph28%29.56 "Hg3 mi
11:55 AM97 °FPartly sunny.20 mph28%29.56 "Hg3 mi
11:25 AM95 °FPartly sunny.20 mph32%29.59 "Hg3 mi
10:55 AM93 °FPartly sunny.20 mph39%29.59 "Hg3 mi
10:25 AM91 °FPartly sunny.18 mph41%29.59 "Hg2 mi
9:55 AM91 °FBroken clouds.21 mph44%29.59 "Hg2 mi
9:25 AM90 °FBroken clouds.17 mph46%29.59 "Hg2 mi
8:55 AM90 °FBroken clouds.20 mph49%29.59 "Hg2 mi
8:25 AM88 °FBroken clouds.26 mph52%29.59 "Hg1 mi
7:55 AM86 °FBroken clouds.31 mph62%29.59 "Hg1 mi
7:25 AM84 °FPartly sunny.8 mph66%29.56 "Hg3 mi
6:55 AM82 °FBroken clouds.7 mph70%29.56 "Hg4 mi
6:25 AM82 °FBroken clouds.6 mph70%29.56 "Hg4 mi
5:55 AM82 °FPartly cloudy.6 mph70%29.53 "Hg4 mi
5:25 AM82 °FPartly cloudy.6 mph70%29.53 "Hg4 mi
4:55 AM82 °FPartly cloudy.5 mph70%29.53 "Hg4 mi
4:25 AM82 °FPartly cloudy.3 mph79%29.53 "Hg4 mi
3:55 AM82 °FPartly cloudy.3 mph79%29.53 "Hg4 mi
3:25 AM82 °FPartly cloudy.8 mph79%29.53 "Hg4 mi
2:55 AM84 °FPartly cloudy.10 mph74%29.53 "Hg4 mi
2:25 AM84 °FPartly cloudy.12 mph74%29.53 "Hg4 mi
1:25 AM86 °FThundershowers. Partly cloudy.7 mph62%29.50 "Hg4 mi
12:55 AM86 °FThundershowers. Partly cloudy.6 mph62%29.50 "Hg4 mi
12:25 AM86 °FPartly cloudy.7 mph62%29.50 "Hg4 mi
11:55 PM
Sep 1
86 °FPartly cloudy.6 mph62%29.50 "Hg4 mi
11:25 PM88 °FPartly cloudy.6 mph59%29.53 "Hg4 mi
10:55 PM88 °FPartly cloudy.7 mph59%29.53 "Hg4 mi
10:25 PM90 °FPartly cloudy.6 mph55%29.50 "Hg4 mi
9:55 PM91 °FPartly cloudy.6 mph49%29.50 "Hg4 mi
9:25 PM91 °FPartly cloudy.12 mph49%29.47 "Hg4 mi
8:55 PM91 °FPartly cloudy.2 mph46%29.47 "Hg4 mi
8:25 PM91 °FPartly cloudy.3 mph46%29.47 "Hg4 mi
7:55 PM91 °FPartly cloudy.1 mph46%29.47 "Hg4 mi
7:25 PM91 °FPartly cloudy.5 mph49%29.45 "Hg4 mi
Weather by CustomWeather, © 2014

See weather overviewHow to use our weather pages